This is the latest recevied weather packets stored in our database for station/object W7TRD. If no packets are shown the sender has not sent any weather packets the latest 1 day(s).
| Time | Temp. | Humidity | Pressure | Rain* | Wind** | Luminosity | Snow |
|---|---|---|---|---|---|---|---|
| 1778027038 | 17.22° C | 73% | 1016.2 hPa | 0 mm | 0.45 m/s, 173° | 115 W/m² | - |
| 1778026733 | 17.22° C | 73% | 1016.4 hPa | 0 mm | 0 m/s | 117 W/m² | - |
| 1778026430 | 17.22° C | 73% | 1016.5 hPa | 0 mm | 0 m/s | 121 W/m² | - |
| 1778026133 | 17.22° C | 74% | 1016.4 hPa | 0 mm | 0.45 m/s, 173° | 123 W/m² | - |
| 1778025825 | 17.22° C | 73% | 1016.6 hPa | 0 mm | 0.45 m/s, 161° | 130 W/m² | - |
| 1778025522 | 17.22° C | 73% | 1016.4 hPa | 0 mm | 0.45 m/s, 196° | 130 W/m² | - |
| 1778025219 | 17.22° C | 73% | 1016.5 hPa | 0 mm | 0.45 m/s, 283° | 137 W/m² | - |
| 1778024916 | 17.22° C | 73% | 1016.5 hPa | 0 mm | 0.89 m/s, 205° | 143 W/m² | - |
| 1778024614 | 17.22° C | 73% | 1016.8 hPa | 0 mm | 0.45 m/s, 177° | 143 W/m² | - |
| 1778024316 | 17.22° C | 73% | 1016.7 hPa | 0 mm | 0.45 m/s, 175° | 142 W/m² | - |
| 1778024009 | 17.22° C | 73% | 1016.6 hPa | 0 mm | 0.89 m/s, 170° | 141 W/m² | - |
| 1778023706 | 17.22° C | 73% | 1016.8 hPa | 0 mm | 0.45 m/s, 186° | 146 W/m² | - |
| 1778023404 | 17.22° C | 74% | 1016.9 hPa | 0 mm | 0.45 m/s, 186° | 144 W/m² | - |
| 1778023100 | 16.67° C | 74% | 1016.9 hPa | 0 mm | 0.45 m/s, 175° | 152 W/m² | - |
| 1778022798 | 17.22° C | 74% | 1017 hPa | 0 mm | 0.89 m/s, 187° | 155 W/m² | - |
| 1778022496 | 17.22° C | 74% | 1016.9 hPa | 0 mm | 0.45 m/s, 172° | 164 W/m² | - |
| 1778022193 | 17.78° C | 73% | 1016.9 hPa | 0 mm | 0 m/s | 166 W/m² | - |
| 1778021889 | 17.22° C | 73% | 1017 hPa | 0 mm | 0 m/s | 175 W/m² | - |
| 1778021586 | 17.78° C | 72% | 1016.9 hPa | 0 mm | 0 m/s | 180 W/m² | - |
| 1778021281 | 17.78° C | 72% | 1017 hPa | 0 mm | 0.45 m/s, 203° | 187 W/m² | - |
| 1778020979 | 17.22° C | 72% | 1016.9 hPa | 0 mm | 0 m/s | 199 W/m² | - |
| 1778020676 | 17.22° C | 73% | 1017.1 hPa | 0 mm | 0 m/s | 205 W/m² | - |
| 1778020373 | 17.22° C | 73% | 1017.1 hPa | 0 mm | 0.89 m/s, 225° | 211 W/m² | - |
| 1778020069 | 17.78° C | 73% | 1017.1 hPa | 0 mm | 1.34 m/s, 187° | 212 W/m² | - |
| 1778019765 | 17.78° C | 72% | 1017 hPa | 0 mm | 0.45 m/s, 166° | 223 W/m² | - |
* Rain latest hour (hover to see other rain measurements)
** Current wind speed in m/s (hover to see current wind gust speed)